QPF
0.00 0.00 0.01 0.01 0.00 0.00 0.00 0.00 0.00 0.00 0.00 0.01 0.01 0.00 0.00 0.00 0.00 0.00 0.00 0.01 0.01 0.01 0.01 0.01 0.00 0.00 0.00 0.00 0.00 0.00 0.01 0.01 0.01 0.01 0.01 0.01 0.02 0.01 0.01 0.01 0.00 0.00 0.01
0.00 0.00 0.01 0.01 0.00 0.00 0.00 0.00 0.00 0.00 0.00 0.00 0.00 0.00 0.00 0.00 0.00 0.00 0.00 0.00 0.01 0.01 0.01 0.00 0.00 0.00 0.00 0.00 0.00 0.00 0.00 0.01 0.00 0.00 0.00 0.00 0.01 0.01 0.01 0.01 0.01 0.01 0.01
0.00 0.00 0.00 0.01 0.00 0.00 0.00 0.00 0.00 0.00 0.00 0.00 0.00 0.00 0.00 0.00 0.00 0.00 0.00 0.00 0.00 0.00 0.00 0.00 0.00 0.00 0.00 0.00 0.00 0.00 0.00 0.00 0.00 0.00 0.00 0.00 0.00 0.01 0.01 0.01 0.01 0.01 0.01
0.00 0.00 0.00 0.00 0.01 0.00 0.00 0.00 0.00 0.00 0.00 0.00 0.00 0.00 0.00 0.00 0.00 0.00 0.00 0.00 0.00 0.00 0.00 0.00 0.00 0.00 0.00 0.00 0.00 0.00 0.00 0.00 0.00 0.00 0.00 0.00 0.00 0.01 0.01 0.01 0.01 0.01 0.01
0.00 0.00 0.00 0.00 0.01 0.01 0.01 0.00 0.00 0.00 0.00 0.00 0.00 0.00 0.00 0.00 0.00 0.00 0.00 0.00 0.00 0.00 0.00 0.00 0.00 0.00 0.00 0.00 0.00 0.00 0.00 0.00 0.00 0.00 0.00 0.00 0.00 0.01 0.01 0.01 0.01 0.01 0.01
0.00 0.00 0.00 0.00 0.01 0.01 0.01 0.01 0.00 0.00 0.00 0.00 0.00 0.00 0.00 0.00 0.00 0.00 0.00 0.00 0.00 0.00 0.00 0.00 0.00 0.00 0.00 0.00 0.00 0.00 0.00 0.00 0.00 0.00 0.00 0.00 0.00 0.01 0.01 0.01 0.01 0.01 0.01
0.00 0.00 0.00 0.01 0.01 0.01 0.01 0.01 0.00 0.00 0.00 0.00 0.00 0.00 0.00 0.00 0.00 0.00 0.00 0.00 0.00 0.00 0.00 0.00 0.00 0.00 0.00 0.00 0.00 0.00 0.00 0.00 0.00 0.00 0.00 0.00 0.00 0.00 0.00 0.00 0.01 0.01 0.01
0.00 0.00 0.00 0.01 0.01 0.01 0.01 0.01 0.01 0.00 0.00 0.00 0.00 0.00 0.00 0.00 0.00 0.00 0.00 0.00 0.00 0.00 0.00 0.00 0.00 0.00 0.00 0.00 0.00 0.00 0.00 0.00 0.00 0.00 0.00 0.00 0.00 0.00 0.00 0.00 0.00 0.00 0.00
0.00 0.00 0.00 0.00 0.01 0.01 0.01 0.01 0.01 0.01 0.00 0.00 0.00 0.00 0.00 0.00 0.00 0.00 0.00 0.00 0.00 0.00 0.00 0.00 0.00 0.00 0.00 0.00 0.00 0.00 0.00 0.00 0.00 0.00 0.00 0.00 0.00 0.00 0.00 0.00 0.00 0.00 0.00
0.00 0.00 0.00 0.00 0.00 0.01 0.01 0.01 0.01 0.01 0.01 0.01 0.00 0.00 0.00 0.00 0.00 0.00 0.00 0.00 0.00 0.00 0.00 0.00 0.00 0.00 0.00 0.00 0.00 0.00 0.00 0.00 0.00 0.00 0.00 0.00 0.00 0.00 0.00 0.00 0.00 0.00 0.00
0.00 0.00 0.00 0.00 0.00 0.00 0.00 0.01 0.01 0.01 0.01 0.00 0.00 0.00 0.00 0.00 0.00 0.00 0.00 0.00 0.00 0.00 0.00 0.00 0.00 0.00 0.00 0.00 0.00 0.00 0.00 0.00 0.00 0.00 0.00 0.00 0.00 0.00 0.00 0.00 0.00 0.00 0.00
0.00 0.00 0.00 0.00 0.00 0.00 0.00 0.00 0.00 0.00 0.00 0.00 0.00 0.00 0.00 0.00 0.00 0.00 0.00 0.00 0.00 0.00 0.00 0.00 0.00 0.00 0.00 0.00 0.00 0.00 0.00 0.00 0.00 0.00 0.00 0.00 0.00 0.00 0.00 0.00 0.00 0.00 0.00
0.00 0.00 0.00 0.00 0.00 0.00 0.00 0.00 0.00 0.00 0.00 0.00 0.00 0.00 0.00 0.00 0.00 0.00 0.00 0.00 0.00 0.00 0.00 0.00 0.00 0.00 0.00 0.00 0.00 0.00 0.00 0.00 0.00 0.00 0.00 0.00 0.00 0.00 0.00 0.00 0.00 0.00 0.00
0.00 0.00 0.00 0.00 0.00 0.00 0.00 0.00 0.00 0.00 0.00 0.00 0.00 0.00 0.00 0.00 0.00 0.00 0.00 0.00 0.00 0.00 0.00 0.00 0.00 0.00 0.00 0.00 0.00 0.00 0.00 0.00 0.00 0.00 0.00 0.00 0.00 0.00 0.00 0.00 0.00 0.00 0.00
0.00 0.00 0.00 0.00 0.00 0.00 0.00 0.00 0.00 0.00 0.00 0.00 0.00 0.00 0.00 0.00 0.00 0.00 0.00 0.00 0.00 0.00 0.00 0.00 0.00 0.00 0.00 0.00 0.00 0.00 0.00 0.00 0.00 0.00 0.00 0.00 0.00 0.00 0.00 0.00 0.00 0.00 0.00
0.00 0.00 0.00 0.00 0.00 0.00 0.00 0.00 0.00 0.00 0.00 0.00 0.00 0.00 0.00 0.00 0.00 0.00 0.00 0.00 0.00 0.00 0.00 0.00 0.00 0.00 0.00 0.00 0.00 0.00 0.00 0.00 0.00 0.00 0.00 0.00 0.00 0.00 0.00 0.00 0.00 0.00 0.00
0.00 0.00 0.00 0.00 0.00 0.00 0.00 0.00 0.00 0.00 0.00 0.00 0.00 0.00 0.00 0.00 0.00 0.00 0.00 0.00 0.00 0.00 0.00 0.00 0.00 0.00 0.00 0.00 0.00 0.00 0.00 0.00 0.00 0.00 0.00 0.00 0.00 0.00 0.00 0.00 0.00 0.00 0.00
0.00 0.00 0.00 0.00 0.00 0.00 0.00 0.00 0.00 0.00 0.00 0.00 0.00 0.00 0.00 0.00 0.00 0.00 0.00 0.00 0.00 0.00 0.00 0.00 0.00 0.00 0.00 0.00 0.00 0.00 0.00 0.00 0.00 0.00 0.00 0.00 0.00 0.00 0.00 0.00 0.00 0.00 0.00
0.00 0.00 0.00 0.00 0.00 0.00 0.00 0.00 0.00 0.00 0.00 0.00 0.00 0.00 0.00 0.00 0.00 0.00 0.00 0.00 0.00 0.00 0.00 0.00 0.00 0.00 0.00 0.00 0.00 0.00 0.00 0.00 0.00 0.00 0.00 0.00 0.00 0.00 0.00 0.00 0.00 0.00 0.00
0.00 0.00 0.00 0.00 0.00 0.00 0.00 0.00 0.00 0.00 0.00 0.00 0.00 0.00 0.00 0.00 0.00 0.00 0.00 0.00 0.00 0.00 0.00 0.00 0.00 0.00 0.00 0.00 0.00 0.00 0.00 0.00 0.00 0.00 0.00 0.00 0.00 0.00 0.00 0.00 0.00 0.00 0.00
0.00 0.00 0.00 0.00 0.00 0.00 0.00 0.00 0.00 0.00 0.00 0.00 0.00 0.00 0.00 0.00 0.00 0.00 0.00 0.00 0.00 0.00 0.00 0.00 0.00 0.00 0.00 0.00 0.00 0.00 0.00 0.00 0.00 0.00 0.00 0.00 0.00 0.00 0.00 0.00 0.00 0.00 0.00
0.00 0.00 0.00 0.00 0.00 0.00 0.00 0.00 0.00 0.00 0.00 0.00 0.00 0.00 0.00 0.00 0.00 0.00 0.00 0.00 0.00 0.00 0.00 0.00 0.00 0.00 0.00 0.00 0.00 0.00 0.00 0.00 0.00 0.00 0.00 0.00 0.00 0.00 0.00 0.00 0.00 0.00 0.00
0.00 0.00 0.00 0.00 0.00 0.00 0.00 0.00 0.00 0.00 0.00 0.00 0.00 0.00 0.00 0.00 0.00 0.00 0.00 0.00 0.00 0.00 0.00 0.00 0.00 0.00 0.00 0.00 0.00 0.00 0.00 0.00 0.00 0.00 0.00 0.00 0.00 0.00 0.00 0.00 0.00 0.00 0.00
0.00 0.00 0.00 0.00 0.00 0.00 0.00 0.00 0.00 0.00 0.00 0.00 0.00 0.00 0.00 0.00 0.00 0.00 0.00 0.00 0.00 0.00 0.00 0.00 0.00 0.00 0.00 0.00 0.00 0.00 0.00 0.00 0.00 0.00 0.00 0.00 0.00 0.00 0.00 0.00 0.00 0.00 0.00
0.00 0.00 0.00 0.00 0.00 0.00 0.00 0.00 0.00 0.00 0.00 0.00 0.00 0.00 0.00 0.00 0.00 0.00 0.00 0.00 0.00 0.00 0.00 0.00 0.00 0.00 0.00 0.00 0.00 0.00 0.00 0.00 0.00 0.00 0.00 0.00 0.00 0.00 0.00 0.00 0.00 0.00 0.00
0.00 0.00 0.00 0.00 0.00 0.00 0.00 0.00 0.00 0.00 0.00 0.00 0.00 0.00 0.00 0.00 0.00 0.00 0.00 0.00 0.00 0.00 0.00 0.00 0.00 0.00 0.00 0.00 0.00 0.00 0.00 0.00 0.00 0.00 0.00 0.00 0.00 0.00 0.00 0.00 0.00 0.00 0.00
MSLP
1018.70 1018.57 1018.60 1018.82 1019.19 1019.66 1020.17 1020.65 1021.05 1021.35 1021.54 1021.66 1021.74 1021.83 1021.97 1022.16 1022.39 1022.66 1022.92 1023.13 1023.29 1023.38 1023.40 1023.39 1023.35 1023.33 1023.33 1023.36 1023.40 1023.46 1023.50 1023.51 1023.47 1023.40 1023.29 1023.16 1023.02 1022.90 1022.80 1022.72 1022.67 1022.62 1022.58
1018.16 1018.09 1018.18 1018.45 1018.88 1019.41 1019.98 1020.52 1020.98 1021.34 1021.60 1021.78 1021.94 1022.10 1022.30 1022.54 1022.82 1023.11 1023.38 1023.61 1023.76 1023.85 1023.88 1023.88 1023.86 1023.85 1023.86 1023.90 1023.96 1024.02 1024.07 1024.09 1024.07 1024.01 1023.92 1023.80 1023.68 1023.55 1023.43 1023.33 1023.24 1023.17 1023.10
1017.63 1017.63 1017.79 1018.12 1018.61 1019.20 1019.82 1020.42 1020.94 1021.36 1021.69 1021.94 1022.16 1022.38 1022.63 1022.92 1023.22 1023.52 1023.80 1024.01 1024.17 1024.25 1024.29 1024.29 1024.29 1024.30 1024.33 1024.39 1024.46 1024.54 1024.60 1024.64 1024.64 1024.60 1024.53 1024.42 1024.30 1024.18 1024.05 1023.92 1023.81 1023.71 1023.62
1017.19 1017.27 1017.50 1017.90 1018.44 1019.07 1019.74 1020.37 1020.93 1021.40 1021.78 1022.08 1022.35 1022.62 1022.91 1023.21 1023.52 1023.82 1024.09 1024.29 1024.44 1024.53 1024.57 1024.60 1024.63 1024.67 1024.73 1024.81 1024.90 1025.00 1025.08 1025.13 1025.15 1025.13 1025.08 1024.99 1024.88 1024.74 1024.60 1024.45 1024.32 1024.20 1024.10
1016.92 1017.06 1017.36 1017.80 1018.38 1019.04 1019.72 1020.36 1020.94 1021.42 1021.82 1022.16 1022.46 1022.75 1023.06 1023.37 1023.69 1023.98 1024.23 1024.43 1024.57 1024.67 1024.74 1024.80 1024.86 1024.95 1025.05 1025.16 1025.28 1025.40 1025.50 1025.57 1025.61 1025.60 1025.56 1025.48 1025.37 1025.22 1025.06 1024.90 1024.75 1024.61 1024.51
1016.84 1017.04 1017.37 1017.85 1018.43 1019.08 1019.74 1020.37 1020.92 1021.39 1021.78 1022.12 1022.44 1022.75 1023.07 1023.40 1023.71 1024.00 1024.25 1024.45 1024.60 1024.72 1024.82 1024.92 1025.03 1025.16 1025.31 1025.46 1025.62 1025.76 1025.88 1025.96 1026.01 1026.01 1025.97 1025.89 1025.76 1025.60 1025.42 1025.24 1025.08 1024.94 1024.84
1016.94 1017.17 1017.52 1017.99 1018.56 1019.17 1019.78 1020.35 1020.85 1021.28 1021.65 1021.99 1022.31 1022.64 1022.97 1023.31 1023.64 1023.94 1024.19 1024.40 1024.57 1024.72 1024.86 1025.01 1025.17 1025.35 1025.54 1025.74 1025.92 1026.09 1026.22 1026.32 1026.37 1026.37 1026.32 1026.22 1026.07 1025.89 1025.69 1025.49 1025.32 1025.18 1025.10
1017.16 1017.39 1017.74 1018.18 1018.70 1019.25 1019.79 1020.28 1020.72 1021.10 1021.44 1021.77 1022.10 1022.46 1022.82 1023.20 1023.55 1023.87 1024.14 1024.37 1024.57 1024.74 1024.92 1025.10 1025.31 1025.53 1025.76 1025.99 1026.21 1026.39 1026.54 1026.64 1026.69 1026.68 1026.61 1026.48 1026.31 1026.10 1025.88 1025.66 1025.48 1025.36 1025.29
1017.40 1017.62 1017.95 1018.35 1018.82 1019.29 1019.75 1020.17 1020.54 1020.87 1021.19 1021.52 1021.89 1022.28 1022.69 1023.11 1023.51 1023.87 1024.17 1024.42 1024.63 1024.82 1025.02 1025.23 1025.47 1025.72 1025.98 1026.24 1026.47 1026.67 1026.82 1026.92 1026.96 1026.94 1026.85 1026.71 1026.51 1026.27 1026.02 1025.79 1025.60 1025.48 1025.44
1017.55 1017.77 1018.07 1018.45 1018.86 1019.27 1019.66 1020.02 1020.33 1020.64 1020.96 1021.31 1021.72 1022.16 1022.64 1023.12 1023.56 1023.96 1024.28 1024.55 1024.78 1024.98 1025.19 1025.41 1025.65 1025.92 1026.20 1026.47 1026.71 1026.92 1027.07 1027.17 1027.21 1027.18 1027.07 1026.90 1026.68 1026.42 1026.15 1025.91 1025.71 1025.59 1025.56
1017.54 1017.76 1018.06 1018.42 1018.80 1019.18 1019.53 1019.84 1020.14 1020.44 1020.77 1021.17 1021.63 1022.14 1022.68 1023.21 1023.71 1024.13 1024.48 1024.76 1024.99 1025.19 1025.39 1025.61 1025.85 1026.12 1026.40 1026.67 1026.91 1027.12 1027.28 1027.38 1027.41 1027.37 1027.26 1027.08 1026.84 1026.57 1026.29 1026.03 1025.82 1025.69 1025.65
1017.32 1017.56 1017.89 1018.26 1018.65 1019.02 1019.36 1019.67 1019.97 1020.29 1020.66 1021.10 1021.62 1022.19 1022.79 1023.37 1023.90 1024.35 1024.71 1024.99 1025.21 1025.40 1025.59 1025.80 1026.03 1026.29 1026.56 1026.83 1027.07 1027.27 1027.43 1027.52 1027.55 1027.51 1027.39 1027.21 1026.97 1026.70 1026.41 1026.14 1025.92 1025.78 1025.71
1016.91 1017.20 1017.58 1018.00 1018.42 1018.81 1019.17 1019.51 1019.83 1020.19 1020.60 1021.09 1021.65 1022.27 1022.90 1023.52 1024.06 1024.53 1024.89 1025.17 1025.38 1025.56 1025.75 1025.95 1026.17 1026.42 1026.68 1026.93 1027.16 1027.35 1027.49 1027.58 1027.60 1027.56 1027.44 1027.27 1027.05 1026.78 1026.50 1026.23 1026.00 1025.82 1025.73
1016.37 1016.73 1017.17 1017.65 1018.12 1018.57 1018.97 1019.35 1019.72 1020.12 1020.57 1021.09 1021.68 1022.32 1022.97 1023.58 1024.13 1024.59 1024.95 1025.23 1025.45 1025.64 1025.82 1026.02 1026.24 1026.49 1026.73 1026.97 1027.18 1027.34 1027.46 1027.53 1027.53 1027.48 1027.38 1027.22 1027.01 1026.76 1026.50 1026.24 1026.00 1025.81 1025.68
1015.80 1016.23 1016.73 1017.27 1017.80 1018.31 1018.76 1019.19 1019.61 1020.04 1020.53 1021.07 1021.66 1022.29 1022.92 1023.51 1024.04 1024.49 1024.85 1025.14 1025.37 1025.58 1025.79 1026.01 1026.24 1026.48 1026.72 1026.93 1027.11 1027.24 1027.32 1027.34 1027.32 1027.26 1027.15 1027.01 1026.82 1026.61 1026.38 1026.13 1025.90 1025.70 1025.53
1015.31 1015.77 1016.32 1016.90 1017.49 1018.04 1018.55 1019.02 1019.48 1019.95 1020.44 1020.97 1021.54 1022.13 1022.71 1023.27 1023.77 1024.20 1024.56 1024.87 1025.14 1025.39 1025.64 1025.89 1026.15 1026.40 1026.62 1026.80 1026.93 1027.01 1027.04 1027.01 1026.95 1026.86 1026.74 1026.61 1026.45 1026.27 1026.08 1025.88 1025.67 1025.47 1025.29
1014.95 1015.43 1015.99 1016.59 1017.19 1017.78 1018.33 1018.84 1019.33 1019.81 1020.30 1020.80 1021.32 1021.85 1022.37 1022.86 1023.32 1023.74 1024.11 1024.44 1024.76 1025.07 1025.37 1025.67 1025.95 1026.20 1026.41 1026.56 1026.65 1026.66 1026.62 1026.53 1026.42 1026.29 1026.15 1026.02 1025.89 1025.75 1025.61 1025.46 1025.29 1025.12 1024.94
1014.78 1015.23 1015.76 1016.34 1016.94 1017.54 1018.11 1018.65 1019.15 1019.63 1020.10 1020.56 1021.01 1021.46 1021.91 1022.34 1022.75 1023.14 1023.52 1023.89 1024.26 1024.62 1024.98 1025.32 1025.63 1025.89 1026.08 1026.20 1026.23 1026.18 1026.07 1025.92 1025.74 1025.57 1025.41 1025.27 1025.16 1025.06 1024.97 1024.88 1024.77 1024.64 1024.49
1014.80 1015.17 1015.64 1016.18 1016.75 1017.34 1017.91 1018.46 1018.96 1019.43 1019.86 1020.27 1020.65 1021.01 1021.37 1021.73 1022.09 1022.46 1022.84 1023.24 1023.65 1024.06 1024.46 1024.84 1025.17 1025.43 1025.60 1025.68 1025.67 1025.56 1025.40 1025.19 1024.96 1024.74 1024.55 1024.41 1024.30 1024.24 1024.19 1024.16 1024.12 1024.05 1023.95
1014.96 1015.25 1015.63 1016.10 1016.62 1017.18 1017.74 1018.28 1018.77 1019.22 1019.61 1019.95 1020.25 1020.53 1020.80 1021.08 1021.39 1021.72 1022.10 1022.51 1022.93 1023.37 1023.80 1024.20 1024.53 1024.79 1024.95 1025.00 1024.96 1024.82 1024.62 1024.37 1024.10 1023.85 1023.64 1023.48 1023.37 1023.33 1023.32 1023.34 1023.35 1023.35 1023.32
1015.24 1015.43 1015.72 1016.10 1016.56 1017.07 1017.60 1018.12 1018.59 1019.00 1019.34 1019.61 1019.83 1020.02 1020.21 1020.41 1020.66 1020.95 1021.30 1021.70 1022.12 1022.56 1022.99 1023.38 1023.71 1023.95 1024.10 1024.15 1024.10 1023.96 1023.75 1023.49 1023.21 1022.95 1022.72 1022.54 1022.43 1022.38 1022.39 1022.44 1022.50 1022.56 1022.59
1015.57 1015.67 1015.87 1016.17 1016.56 1017.01 1017.50 1017.98 1018.41 1018.77 1019.05 1019.25 1019.40 1019.50 1019.60 1019.73 1019.91 1020.15 1020.45 1020.81 1021.21 1021.62 1022.02 1022.38 1022.69 1022.92 1023.07 1023.13 1023.10 1022.99 1022.81 1022.58 1022.32 1022.06 1021.82 1021.63 1021.50 1021.43 1021.44 1021.49 1021.58 1021.68 1021.76
1015.93 1015.96 1016.08 1016.30 1016.61 1017.00 1017.43 1017.85 1018.23 1018.53 1018.75 1018.88 1018.93 1018.96 1018.98 1019.03 1019.14 1019.31 1019.56 1019.86 1020.20 1020.55 1020.90 1021.22 1021.49 1021.71 1021.86 1021.95 1021.98 1021.93 1021.81 1021.65 1021.43 1021.20 1020.97 1020.76 1020.60 1020.50 1020.48 1020.52 1020.60 1020.72 1020.84
1016.27 1016.25 1016.31 1016.46 1016.70 1017.01 1017.36 1017.72 1018.03 1018.26 1018.41 1018.46 1018.44 1018.39 1018.34 1018.32 1018.35 1018.46 1018.63 1018.86 1019.12 1019.40 1019.67 1019.92 1020.16 1020.36 1020.53 1020.66 1020.74 1020.78 1020.76 1020.67 1020.53 1020.34 1020.13 1019.92 1019.73 1019.59 1019.52 1019.52 1019.58 1019.69 1019.81
1016.59 1016.54 1016.54 1016.62 1016.78 1017.01 1017.29 1017.56 1017.80 1017.96 1018.02 1018.01 1017.92 1017.80 1017.68 1017.60 1017.57 1017.60 1017.70 1017.84 1018.01 1018.20 1018.38 1018.57 1018.75 1018.93 1019.10 1019.27 1019.43 1019.55 1019.63 1019.64 1019.58 1019.45 1019.27 1019.06 1018.85 1018.68 1018.56 1018.51 1018.53 1018.61 1018.72
1016.85 1016.78 1016.73 1016.75 1016.83 1016.99 1017.18 1017.37 1017.52 1017.60 1017.61 1017.53 1017.39 1017.21 1017.04 1016.90 1016.81 1016.78 1016.80 1016.85 1016.93 1017.02 1017.11 1017.21 1017.33 1017.48 1017.65 1017.84 1018.05 1018.25 1018.42 1018.52 1018.54 1018.48 1018.34 1018.15 1017.94 1017.74 1017.58 1017.49 1017.47 1017.51 1017.60
Thickness
5708 5708 5706 5703 5699 5696 5693 5691 5689 5686 5684 5682 5681 5679 5677 5676 5675 5674 5674 5673 5673 5673 5673 5673 5673 5673 5674 5674 5675 5675 5676 5676 5677 5678 5680 5682 5684 5684 5685 5685 5686 5688 5690
5718 5710 5707 5703 5699 5695 5692 5689 5687 5684 5681 5679 5677 5676 5674 5672 5671 5670 5669 5668 5668 5668 5667 5667 5667 5667 5667 5668 5668 5668 5668 5669 5669 5670 5672 5674 5676 5677 5678 5679 5680 5681 5683
5717 5711 5708 5703 5698 5694 5691 5687 5684 5682 5679 5676 5674 5672 5670 5668 5666 5665 5664 5663 5663 5662 5661 5661 5660 5661 5661 5661 5661 5661 5661 5661 5662 5663 5665 5667 5668 5670 5671 5672 5673 5674 5675
5715 5710 5707 5703 5697 5693 5689 5685 5682 5679 5676 5673 5671 5668 5666 5664 5662 5661 5659 5658 5657 5656 5655 5655 5654 5655 5655 5655 5655 5654 5654 5654 5654 5656 5658 5659 5661 5663 5664 5665 5666 5667 5668
5713 5708 5705 5701 5696 5691 5687 5683 5680 5676 5673 5671 5668 5665 5663 5660 5659 5657 5655 5654 5652 5651 5650 5649 5649 5649 5649 5649 5648 5648 5647 5647 5648 5649 5650 5652 5653 5656 5656 5657 5658 5659 5660
5711 5706 5703 5699 5694 5690 5685 5681 5677 5674 5671 5668 5665 5662 5659 5657 5655 5653 5651 5649 5648 5646 5645 5645 5644 5644 5644 5643 5643 5642 5641 5641 5642 5643 5643 5645 5646 5648 5649 5649 5650 5651 5652
5708 5704 5701 5697 5692 5688 5684 5679 5675 5672 5668 5665 5662 5659 5657 5654 5652 5649 5647 5645 5644 5642 5641 5640 5639 5639 5638 5638 5638 5637 5635 5635 5635 5636 5637 5638 5640 5641 5642 5642 5643 5644 5645
5704 5701 5698 5695 5690 5686 5682 5678 5673 5670 5666 5663 5660 5657 5654 5651 5649 5646 5644 5642 5640 5638 5637 5635 5634 5633 5633 5633 5632 5631 5630 5629 5629 5629 5630 5632 5633 5635 5635 5635 5636 5637 5637
5700 5697 5695 5693 5689 5684 5680 5676 5672 5668 5664 5661 5657 5654 5651 5649 5646 5643 5640 5638 5636 5634 5632 5631 5630 5628 5628 5627 5627 5626 5624 5623 5623 5623 5624 5625 5627 5628 5629 5629 5629 5630 5630
5696 5694 5692 5690 5687 5683 5679 5674 5670 5665 5662 5658 5655 5652 5649 5646 5643 5640 5637 5635 5633 5631 5629 5627 5625 5624 5623 5622 5621 5620 5619 5618 5617 5617 5618 5619 5620 5621 5622 5622 5622 5622 5623
5692 5691 5689 5687 5685 5681 5677 5672 5668 5664 5660 5656 5652 5649 5645 5642 5639 5637 5634 5631 5629 5627 5625 5623 5621 5620 5618 5617 5616 5615 5614 5612 5611 5611 5611 5612 5613 5614 5615 5615 5615 5615 5615
5692 5690 5687 5685 5682 5679 5674 5670 5666 5662 5658 5654 5650 5646 5643 5639 5636 5632 5630 5627 5625 5623 5621 5619 5617 5616 5614 5612 5610 5609 5608 5607 5605 5605 5605 5605 5606 5607 5608 5608 5608 5608 5608
5695 5689 5686 5683 5679 5676 5672 5668 5663 5659 5655 5651 5647 5643 5639 5635 5631 5628 5625 5622 5620 5618 5616 5614 5612 5611 5609 5607 5605 5603 5602 5601 5600 5599 5599 5598 5599 5600 5601 5601 5601 5601 5600
5691 5689 5685 5680 5676 5672 5669 5664 5660 5656 5651 5647 5643 5639 5635 5630 5627 5623 5621 5618 5615 5613 5610 5608 5606 5604 5602 5601 5599 5598 5596 5595 5594 5593 5593 5592 5592 5593 5594 5594 5594 5594 5593
5689 5686 5682 5678 5673 5669 5665 5660 5656 5652 5648 5644 5639 5635 5631 5626 5622 5619 5616 5613 5610 5607 5605 5602 5600 5598 5596 5594 5593 5591 5591 5590 5589 5588 5587 5586 5585 5586 5586 5587 5587 5587 5586
5690 5685 5680 5675 5671 5666 5661 5657 5653 5648 5644 5640 5635 5632 5627 5623 5618 5614 5611 5608 5605 5602 5600 5597 5595 5592 5590 5588 5587 5586 5585 5584 5583 5582 5581 5580 5579 5578 5579 5579 5580 5580 5579
5690 5683 5678 5672 5667 5662 5658 5654 5649 5645 5640 5635 5631 5627 5623 5619 5615 5610 5606 5603 5600 5597 5595 5591 5588 5586 5584 5582 5581 5580 5579 5579 5578 5577 5576 5575 5573 5571 5571 5571 5571 5572 5571
5687 5681 5676 5670 5664 5659 5655 5650 5645 5640 5636 5631 5627 5622 5619 5615 5611 5606 5603 5600 5596 5592 5589 5586 5583 5579 5577 5575 5575 5574 5574 5573 5572 5571 5570 5569 5567 5566 5564 5563 5563 5563 5563
5684 5678 5672 5668 5663 5656 5650 5645 5640 5635 5631 5627 5622 5618 5614 5610 5606 5602 5599 5596 5591 5587 5583 5580 5577 5573 5572 5570 5569 5568 5568 5567 5567 5566 5565 5564 5563 5561 5560 5557 5556 5555 5554
5679 5674 5669 5664 5658 5652 5645 5639 5634 5629 5626 5622 5618 5614 5610 5605 5601 5598 5595 5591 5586 5581 5577 5574 5572 5569 5566 5564 5562 5563 5563 5562 5561 5561 5561 5560 5559 5557 5555 5553 5550 5548 5546
5671 5667 5663 5658 5653 5647 5640 5634 5628 5625 5621 5617 5613 5610 5606 5602 5598 5594 5591 5587 5581 5577 5575 5571 5565 5561 5558 5553 5547 5550 5555 5557 5559 5560 5559 5557 5556 5554 5551 5548 5544 5541 5539
5662 5659 5656 5652 5648 5643 5638 5632 5625 5621 5617 5613 5609 5606 5602 5599 5595 5590 5586 5583 5578 5573 5569 5565 5559 5554 5551 5545 5539 5535 5540 5550 5554 5556 5555 5553 5551 5547 5544 5540 5537 5534 5531
5653 5650 5650 5646 5642 5637 5632 5625 5619 5614 5610 5606 5604 5603 5600 5595 5591 5587 5584 5579 5574 5569 5565 5561 5555 5548 5545 5540 5534 5528 5524 5535 5538 5546 5545 5544 5542 5539 5536 5533 5529 5526 5523
5644 5643 5641 5639 5636 5631 5626 5620 5614 5609 5606 5606 5603 5599 5595 5591 5587 5583 5579 5575 5570 5565 5561 5558 5552 5546 5539 5535 5526 5524 5526 5524 5520 5529 5533 5532 5530 5528 5526 5523 5521 5518 5515
5636 5634 5632 5631 5628 5624 5619 5615 5609 5606 5604 5602 5597 5593 5590 5587 5584 5580 5575 5570 5566 5561 5558 5553 5547 5541 5535 5531 5525 5517 5513 5510 5506 5502 5518 5522 5517 5519 5518 5515 5512 5510 5507
5628 5626 5624 5622 5619 5616 5612 5607 5603 5600 5597 5593 5590 5587 5584 5581 5578 5574 5569 5565 5561 5557 5552 5548 5542 5536 5531 5525 5520 5513 5506 5501 5501 5495 5500 5509 5510 5513 5508 5506 5504 5501 5498